Location: Joplin, MO
(37.0842°N, 94.5133°W)
Time: 11:34:36
(UTC+02:00)

Vanguard 3 - Pass Details

Date: 09 April 2023
Orbit: 507 x 3246 km, 33.4° (Epoch: 01 June)

Event Time Altitude Azimuth Distance (km) Brightness Sun altitude
Rises 15:34:41 0° 277° (W) 7,149 11.3 19.5°
Reaches altitude 10° 15:42:39 10° 260° (W) 6,175 11.1 21.1°
Maximum altitude 15:51:57 16° 231° (SW) 5,485 11.1 22.9°
Drops below altitude 10° 16:00:28 10° 201° (SSW) 5,519 11.3 24.6°
Sets 16:06:59 0° 181° (S) 6,033 11.7 25.9°
